Meteo Giornale » Osservazioni meteo Italia » Falconara

ore: 13:20 - Osservazioni Meteo Falconara
Lat. 43° 37' N Lon. 13° 22' E Alt. 12 metri s.l.m.

molto_nuvoloso Europe/Rome

14 °C

Molto Nuvoloso

Temp. 24 Ore

7 °C

15 °C

Est/Nord-Est

16.7 Km/h

Dew point 7 °C

Umidità 62 %

Visibilità  10 Km

Il sole sorge alle ore 06:16

Il sole tramonta alle ore 19:55

Data e Ora Cielo e Fenomeni T °C DP °C Um. % Pres. hPa Vis. km Vento km/h
Oggi h: 13:20 molto_nuvoloso Molto Nuvoloso 14 7 62 1008 10 E/NE 16.7
Oggi h: 12:50 molto_nuvoloso Molto Nuvoloso 12 6 66 1009 10 E/NE 14.8
Oggi h: 12:20 molto_nuvoloso Molto Nuvoloso 13 5 58 1009 10 E 13
Oggi h: 11:50 molto_nuvoloso Molto Nuvoloso 14 8 67 1009 10 E 13
Oggi h: 11:20 coperto Coperto 12 5 62 1009 10 N 3.7
Oggi h: 10:50 coperto Coperto 12 4 57 1009 10 N 5.5
Oggi h: 10:20 coperto Coperto 12 5 62 1008 10 N 5.5
Oggi h: 09:50 molto_nuvoloso Molto Nuvoloso 12 5 62 1008 10 E/NE 7.4
Oggi h: 09:20 coperto_pioggia Pioggia Debole 10 5 71 1008 10 E/NE 14.8
Oggi h: 08:50 coperto_pioggia Pioggia Debole 9 6 81 1008 10 N/NE 16.7
Oggi h: 08:20 coperto_pioggia Pioggia Debole 10 6 76 1008 10 N/NE 24
Oggi h: 07:50 coperto Coperto 11 5 66 1008 10 E/NE 18.5
Oggi h: 07:20 coperto Coperto 10 5 71 1007 10 E 18.5
Oggi h: 06:50 coperto Coperto 11 5 66 1007 10 E/NE 18.5
Oggi h: 06:20 molto_nuvoloso Molto Nuvoloso 10 6 76 1006 10 E/NE 13
Oggi h: 05:50 molto_nuvoloso Molto Nuvoloso 8 5 81 1006 10 N 1.8
Oggi h: 05:20 coperto Coperto 8 4 75 1006 10 N 5.5
Oggi h: 04:50 coperto Coperto 8 4 75 1006 10 S 7.4
Oggi h: 04:20 molto_nuvoloso Molto Nuvoloso 8 5 81 1006 10 S 9.3
Oggi h: 03:50 molto_nuvoloso Molto Nuvoloso 7 4 81 1006 10 N 5.5
Oggi h: 03:20 poco_nuvoloso Poco Nuvoloso 7 5 87 1006 10 N 5.5
Oggi h: 02:50 molto_nuvoloso Molto Nuvoloso 8 5 81 1006 10 S 7.4
Oggi h: 02:20 molto_nuvoloso Molto Nuvoloso 8 5 81 1007 10 N 5.5
Oggi h: 01:50 sereno Sereno 8 5 81 1007 10 N 5.5
Oggi h: 01:20 sereno Sereno 8 5 81 1007 10 N 5.5
Oggi h: 00:50 sereno Sereno 9 5 75 1007 10 S 7.4
Oggi h: 00:20 poco_nuvoloso Poco Nuvoloso 8 6 87 1007 10 N 5.5
Ieri h: 23:50 poco_nuvoloso Poco Nuvoloso 8 7 93 1007 10 S 7.4
Ieri h: 23:20 molto_nuvoloso Molto Nuvoloso 8 6 87 1006 10 N 3.7
Ieri h: 22:50 molto_nuvoloso Molto Nuvoloso 9 6 81 1006 10 N 5.5
Ieri h: 22:20 coperto Coperto 9 6 81 1006 10 N 3.7
Ieri h: 21:50 nuvoloso Nuvoloso 10 7 81 1006 10 N 5.5
Ieri h: 21:20 molto_nuvoloso Molto Nuvoloso 10 7 81 1006 10 N 5.5
Ieri h: 20:50 molto_nuvoloso Molto Nuvoloso 11 6 71 1006 10 N 1.8
Ieri h: 20:20 molto_nuvoloso Molto Nuvoloso 12 6 66 1005 10 N 3.7
Ieri h: 19:50 molto_nuvoloso Molto Nuvoloso 12 6 66 1005 10 N/NE 7.4
Ieri h: 19:20 molto_nuvoloso Molto Nuvoloso 13 7 66 1005 10 N 5.5
Ieri h: 18:50 molto_nuvoloso Molto Nuvoloso 14 7 62 1005 10 N/NO 9.3
Ieri h: 18:20 molto_nuvoloso Molto Nuvoloso 14 7 62 1004 10 N 11.1
Ieri h: 17:50 molto_nuvoloso Molto Nuvoloso 14 7 62 1004 10 N 9.3
Ieri h: 17:20 molto_nuvoloso Molto Nuvoloso 14 7 62 1004 10 N 9.3
Ieri h: 16:50 molto_nuvoloso Molto Nuvoloso 14 7 62 1004 10 N 13
Ieri h: 16:20 molto_nuvoloso Molto Nuvoloso 14 7 62 1004 10 N 14.8
Ieri h: 15:50 molto_nuvoloso Molto Nuvoloso 15 8 62 1004 10 N 16.7
Ieri h: 15:20 molto_nuvoloso Molto Nuvoloso 15 8 62 1004 10 N/NO 14.8
Ieri h: 14:50 molto_nuvoloso Molto Nuvoloso 14 8 67 1005 10 N/NO 20.3
Ieri h: 14:20 sereno Sereno 15 8 62 1005 10 N/NO 18.5
Ieri h: 13:50 sereno Sereno 15 7 58 1005 10 N/NO 22.2